W4ZHA Weather Reports


Display with metric or nautical units.
time (UTC)temp
F
wind
direction
speed
MPH
gust
MPH
rain 1hr
in
rain 24hr
in
rain mn
in
humidity
%
barometer
mb
20260504025340 52 228 0.0 0.0 0.00 0.00 0.00 68 1017.9
20260504024837 52 195 0.0 0.0 0.00 0.00 0.00 69 1017.9
20260504024333 52 238 0.0 0.0 0.00 0.00 0.00 69 1017.6
20260504023830 52 233 0.0 0.0 0.00 0.00 0.00 68 1017.2
20260504023327 53 218 0.0 0.0 0.00 0.00 0.00 68 1017.2
20260504022822 53 230 0.0 0.0 0.00 0.00 0.00 68 1017.6
20260504022320 53 228 0.0 0.0 0.00 0.00 0.00 69 1017.2
20260504021816 53 235 0.0 0.0 0.00 0.00 0.00 69 1017.2
20260504021314 53 231 0.0 0.0 0.00 0.00 0.00 68 1017.6
20260504020811 53 229 0.0 0.0 0.00 0.00 0.00 68 1017.6
20260504020308 53 229 0.0 0.0 0.00 0.00 0.00 68 1017.6
20260504015803 54 220 0.0 0.0 0.00 0.00 0.00 67 1017.6
20260504015300 54 228 0.0 0.0 0.00 0.00 0.00 67 1017.6
20260504014756 54 228 0.0 0.0 0.00 0.00 0.00 66 1017.6
20260504014252 55 233 0.0 0.0 0.00 0.00 0.00 66 1017.2
20260504013750 55 226 0.0 0.0 0.00 0.00 0.00 67 1017.2
20260504013247 55 229 0.0 0.0 0.00 0.00 0.00 66 1017.6
20260504012743 55 232 0.0 0.0 0.00 0.00 0.00 68 1017.2
20260504012242 56 225 0.0 0.0 0.00 0.00 0.00 68 1017.2
20260504011738 56 229 0.0 0.0 0.00 0.00 0.00 67 1017.2
20260504011235 57 226 0.0 0.0 0.00 0.00 0.00 67 1016.8
20260504010731 57 224 0.0 0.0 0.00 0.00 0.00 67 1017.2
20260504010227 57 228 0.0 0.0 0.00 0.00 0.00 66 1017.2
20260504005724 57 230 0.0 0.0 0.00 0.00 0.00 66 1016.8
20260504005221 58 230 0.0 0.0 0.00 0.00 0.00 64 1017.2
20260504004719 58 232 0.0 0.0 0.00 0.00 0.00 62 1016.8
20260504004215 59 229 0.0 0.0 0.00 0.00 0.00 61 1016.8
20260504003712 59 231 0.0 0.0 0.00 0.00 0.00 59 1016.8
20260504003209 60 238 0.0 0.0 0.00 0.00 0.00 57 1016.8
20260504002706 61 232 0.0 0.0 0.00 0.00 0.00 56 1016.8
20260504002203 62 238 0.0 0.0 0.00 0.00 0.00 55 1016.8
20260504001701 62 237 0.0 0.0 0.00 0.00 0.00 55 1016.8
20260504001157 63 249 0.0 0.0 0.00 0.00 0.00 53 1016.8
20260504000654 63 241 0.0 0.0 0.00 0.00 0.00 53 1016.8
20260504000151 64 239 0.0 0.0 0.00 0.00 0.00 52 1016.5
20260503235649 65 235 0.0 0.0 0.00 0.00 0.00 53 1016.8
20260503235145 65 226 0.0 0.0 0.00 0.00 0.00 52 1016.8
20260503234644 66 251 0.0 0.0 0.00 0.00 0.00 51 1016.8
20260503234142 66 243 0.0 0.0 0.00 0.00 0.00 51 1017.2
20260503233638 68 262 0.0 0.0 0.00 0.00 0.00 57 1016.8
20260503233134 68 242 0.0 0.0 0.00 0.00 0.00 56 1016.8
20260503232631 68 238 0.0 0.0 0.00 0.00 0.00 55 1017.2
20260503232128 68 246 0.0 0.0 0.00 0.00 0.00 55 1016.8
20260503231626 69 263 0.0 0.0 0.00 0.00 0.00 55 1016.8
20260503231122 69 215 0.0 0.0 0.00 0.00 0.00 55 1016.8
20260503230619 69 220 0.0 0.0 0.00 0.00 0.00 55 1016.8
20260503230117 69 285 0.0 0.0 0.00 0.00 0.00 53 1017.2
20260503225614 69 240 0.0 0.0 0.00 0.00 0.00 52 1017.2
20260503225113 69 209 0.0 0.0 0.00 0.00 0.00 50 1016.8
20260503224611 70 234 0.0 0.0 0.00 0.00 0.00 49 1016.8
20260503224109 71 177 0.0 5.0 0.00 0.00 0.00 48 1017.2
20260503223607 71 194 0.0 0.0 0.00 0.00 0.00 47 1017.2
20260503223102 71 268 0.0 2.0 0.00 0.00 0.00 48 1017.2
20260503222600 72 201 0.0 0.0 0.00 0.00 0.00 47 1017.2
20260503222058 72 279 0.0 0.0 0.00 0.00 0.00 47 1017.6
20260503221556 71 271 0.0 0.0 0.00 0.00 0.00 48 1017.2
20260503221053 71 219 0.0 0.0 0.00 0.00 0.00 48 1017.2
20260503220549 70 259 0.0 0.0 0.00 0.00 0.00 47 1017.2
20260503220046 69 271 0.0 10.0 0.00 0.00 0.00 49 1017.2
20260503215543 71 278 0.0 10.0 0.00 0.00 0.00 48 1017.2
20260503215040 71 279 0.0 0.0 0.00 0.00 0.00 48 1017.2
20260503214539 70 284 6.0 10.0 0.00 0.00 0.00 48 1017.2
20260503214035 72 301 0.0 2.0 0.00 0.00 0.00 47 1017.2
20260503213533 73 225 0.0 0.0 0.00 0.00 0.00 47 1017.2
20260503213030 70 214 0.0 0.0 0.00 0.00 0.00 48 1017.6
20260503212527 69 139 0.0 2.0 0.00 0.00 0.00 49 1017.6
20260503212024 70 315 1.0 5.0 0.00 0.00 0.00 50 1017.6
20260503211521 70 279 1.0 2.0 0.00 0.00 0.00 48 1017.9
20260503211017 71 279 2.0 8.0 0.00 0.00 0.00 48 1017.9
20260503210514 71 280 4.0 8.0 0.00 0.00 0.00 47 1017.9
20260503210009 70 223 0.0 8.0 0.00 0.00 0.00 49 1017.9
20260503205506 72 228 0.0 0.0 0.00 0.00 0.00 48 1017.9
20260503205003 72 175 0.0 0.0 0.00 0.00 0.00 47 1017.9
20260503204500 71 236 0.0 5.0 0.00 0.00 0.00 48 1018.3
20260503203956 69 111 0.0 5.0 0.00 0.00 0.00 49 1018.3
20260503203454 69 148 0.0 0.0 0.00 0.00 0.00 48 1018.3
20260503202950 69 223 0.0 0.0 0.00 0.00 0.00 49 1018.3
20260503202449 70 232 0.0 0.0 0.00 0.00 0.00 49 1018.6
20260503201947 71 284 0.0 0.0 0.00 0.00 0.00 48 1019.0
20260503201444 70 271 0.0 0.0 0.00 0.00 0.00 50 1019.0
20260503200941 70 239 0.0 2.0 0.00 0.00 0.00 50 1019.0
20260503200437 71 217 0.0 0.0 0.00 0.00 0.00 48 1019.0
20260503195934 70 213 0.0 2.0 0.00 0.00 0.00 48 1019.0
20260503195432 69 252 0.0 2.0 0.00 0.00 0.00 49 1019.0
20260503194928 69 211 0.0 0.0 0.00 0.00 0.00 50 1019.3
20260503194425 69 206 0.0 0.0 0.00 0.00 0.00 49 1019.3
20260503193915 68 102 0.0 5.0 0.00 0.00 0.00 50 1019.3
20260503193410 68 144 1.0 2.0 0.00 0.00 0.00 50 1019.3
20260503192906 68 155 0.0 0.0 0.00 0.00 0.00 49 1019.6
20260503192403 68 209 0.0 2.0 0.00 0.00 0.00 50 1019.6
20260503191859 66 218 0.0 2.0 0.00 0.00 0.00 51 1020.0
20260503191356 65 234 0.0 2.0 0.00 0.00 0.00 51 1020.0
20260503190852 66 199 0.0 10.0 0.00 0.00 0.00 51 1020.0
20260503190350 66 208 0.0 5.0 0.00 0.00 0.00 51 1020.0
20260503185847 65 192 0.0 0.0 0.00 0.00 0.00 51 1020.0
20260503185343 67 221 0.0 0.0 0.00 0.00 0.00 51 1020.3
20260503184843 65 161 0.0 0.0 0.00 0.00 0.00 51 1020.0
20260503184339 65 213 0.0 0.0 0.00 0.00 0.00 51 1020.0
20260503183835 65 76 0.0 0.0 0.00 0.00 0.00 51 1020.3
20260503183332 67 210 0.0 0.0 0.00 0.00 0.00 50 1020.3
20260503182830 66 337 0.0 0.0 0.00 0.00 0.00 50 1020.3
20260503182329 66 279 0.0 5.0 0.00 0.00 0.00 52 1020.6
20260503181825 66 242 0.0 0.0 0.00 0.00 0.00 52 1020.3
20260503181322 62 142 0.0 5.0 0.00 0.00 0.00 52 1020.6
20260503180819 63 139 0.0 2.0 0.00 0.00 0.00 51 1020.6
20260503180317 64 146 0.0 0.0 0.00 0.00 0.00 52 1020.6
20260503175813 63 172 0.0 0.0 0.00 0.00 0.00 51 1020.6
20260503175311 64 176 0.0 2.0 0.00 0.00 0.00 50 1021.0
20260503174806 62 117 0.0 0.0 0.00 0.00 0.00 52 1021.0
20260503174305 63 103 0.0 0.0 0.00 0.00 0.00 50 1021.0
20260503173800 65 165 0.0 0.0 0.00 0.00 0.00 52 1021.0
20260503173256 65 185 0.0 0.0 0.00 0.00 0.00 52 1021.3
20260503172753 66 213 0.0 0.0 0.00 0.00 0.00 50 1021.3
20260503172250 63 141 0.0 2.0 0.00 0.00 0.00 51 1021.3
20260503171746 65 241 0.0 0.0 0.00 0.00 0.00 52 1021.3
20260503171244 62 131 0.0 0.0 0.00 0.00 0.00 53 1021.8
20260503170741 60 93 0.0 0.0 0.00 0.00 0.00 55 1021.3
20260503170237 60 93 0.0 0.0 0.00 0.00 0.00 55 1021.3
20260503160159 58 81 0.0 2.0 0.00 0.00 0.00 57 1022.4
20260503150630 57 337 0.0 0.0 0.00 0.00 0.00 58 1022.4
20260503150125 58 55 0.0 0.0 0.00 0.00 0.00 58 1022.8
20260503131020 51 132 0.0 0.0 0.00 0.00 0.00 66 1022.4
20260503130517 51 228 0.0 0.0 0.00 0.00 0.00 67 1022.4
20260503110407 43 213 0.0 0.0 0.00 0.00 0.00 85 1021.3
20260503090258 46 245 0.0 0.0 0.00 0.00 0.00 76 1020.0
20260503081231 47 220 0.0 0.0 0.00 0.00 0.00 77 1019.6
20260503080726 46 190 0.0 0.0 0.00 0.00 0.00 77 1019.6
20260503080224 46 214 0.0 0.0 0.00 0.00 0.00 78 1019.6
20260503072701 46 227 0.0 0.0 0.00 0.00 0.00 79 1019.6
20260503072157 46 231 0.0 0.0 0.00 0.00 0.00 79 1019.3
20260503071654 46 233 0.0 0.0 0.00 0.00 0.00 79 1019.6
20260503071151 46 222 0.0 0.0 0.00 0.00 0.00 79 1019.3
20260503070648 46 224 0.0 0.0 0.00 0.00 0.00 79 1019.3
20260503070146 46 241 0.0 0.0 0.00 0.00 0.00 78 1019.3
20260503060110 47 223 0.0 0.0 0.00 0.00 0.00 78 1019.0
20260503055102 47 228 0.0 0.0 0.00 0.00 0.00 78 1019.0
20260503054557 47 221 0.0 0.0 0.00 0.00 0.00 78 1019.0
20260503054055 47 230 0.0 0.0 0.00 0.00 0.00 78 1019.0
20260503053553 47 224 0.0 0.0 0.00 0.00 0.00 78 1019.3
20260503053050 47 221 0.0 0.0 0.00 0.00 0.00 79 1019.3
20260503052547 46 235 0.0 0.0 0.00 0.00 0.00 78 1019.0
20260503052043 47 223 0.0 0.0 0.00 0.00 0.00 78 1019.0
20260503051539 47 224 0.0 0.0 0.00 0.00 0.00 78 1019.0
20260503051037 47 222 0.0 0.0 0.00 0.00 0.00 78 1019.0
20260503050532 47 240 0.0 0.0 0.00 0.00 0.00 78 1019.0
20260503050030 47 223 0.0 0.0 0.00 0.00 0.00 77 1019.0
20260503045527 47 226 0.0 0.0 0.00 0.00 0.00 77 1019.0
20260503045024 48 214 0.0 0.0 0.00 0.00 0.00 77 1019.0
20260503044520 48 243 0.0 0.0 0.00 0.00 0.00 75 1019.0
20260503044019 48 233 0.0 0.0 0.00 0.00 0.00 74 1019.0
20260503043514 49 228 0.0 0.0 0.00 0.00 0.00 72 1019.0
20260503043011 49 235 0.0 0.0 0.00 0.00 0.00 72 1019.0
20260503042508 49 233 0.0 0.0 0.00 0.00 0.00 70 1018.6
20260503042004 50 232 0.0 0.0 0.00 0.00 0.00 70 1019.0
20260503041501 50 238 0.0 0.0 0.00 0.00 0.00 69 1018.3
20260503040959 51 216 0.0 0.0 0.00 0.00 0.00 68 1018.6
20260503040456 51 233 0.0 0.0 0.00 0.00 0.00 67 1018.6
20260503035953 51 217 0.0 0.0 0.00 0.00 0.00 67 1018.3
20260503035450 53 193 0.0 0.0 0.00 0.00 0.00 66 1018.6
20260503034948 53 219 0.0 0.0 0.00 0.00 0.00 66 1018.3
20260503034445 53 220 0.0 0.0 0.00 0.00 0.00 65 1017.9
20260503033942 53 233 0.0 0.0 0.00 0.00 0.00 65 1018.3
20260503033439 54 237 0.0 0.0 0.00 0.00 0.00 63 1018.3
20260503032937 54 220 0.0 0.0 0.00 0.00 0.00 63 1017.9
20260503032435 54 223 0.0 0.0 0.00 0.00 0.00 63 1017.9
20260503031932 54 220 0.0 0.0 0.00 0.00 0.00 63 1018.3
20260503031430 54 215 0.0 0.0 0.00 0.00 0.00 63 1018.3
20260503030926 55 173 0.0 0.0 0.00 0.00 0.00 63 1018.3
20260503030423 54 244 0.0 0.0 0.00 0.00 0.00 63 1018.3
20260503025920 55 221 0.0 0.0 0.00 0.00 0.00 63 1018.3